sat.trackr.live / text

‹ back to catalog

UNKNOWN

NORAD 81111

UNKNOWN UNKNOWN UNKNOWN

§ Identity

Operator
Country
Launch date
Launch site
Launch vehicle
Mass (kg)
RCS (m²)

External: N2YO · Heavens-Above

§ Orbital elements

Epoch: 2026-09-17T02:19:42.217824Z

Period
188.37 min
Inclination
62.8602°
Eccentricity
0.3824089
Mean motion
7.64470728 rev/d
Perigee alt
344.3 km
Apogee alt
8,669.4 km
Semi-major
10,885.0 km
B*
3.0680e-3
RAAN
115.0194°
Arg perigee
8.6562°
Mean anomaly
356.4542°
Rev number
29,309

§ Raw data

UNKNOWN1 81111U          26260.09701641  .00017493  00000+0  30680-2 0  99982 81111  62.8602 115.0194 3824089   8.6562 356.4542  7.64470728293097

JSON: /api/v1/satellites/81111 · /tle

For live sub-satellite position, see the globe view (requires WebGL).

§ Visibility from observer

Set your observer location to see the next 7 days of passes ≥ 10°. The values pass through the URL so the page stays shareable.

No JS? Fill the form by hand. The geolocation button needs JavaScript.